Location: Mercogliano
(40.9167°N, 14.7333°E)
Time: 06:59:11
(UTC+00:00)

NOSS 2-2 (D) - Pass Details

Date: 18 September 2020
Orbit: 469 x 1739 km, 63.3° (Epoch: 23 October)

Event Time Altitude Azimuth Distance (km) Brightness Sun altitude
Rises 17:29:35 0° 190° (S) 2,561 6.8 -5.5°
Reaches altitude 10° 17:31:55 10° 178° (S) 1,635 5.6 -6.0°
Maximum altitude 17:34:58 28° 117° (ESE) 906 3.9 -6.6°
Drops below altitude 10° 17:38:06 10° 56° (NE) 1,683 5.4 -7.1°
Sets 17:40:32 0° 45° (NE) 2,654 6.5 -7.6°
